TimeMST,TemperatureF,Dew PointF,Humidity,Sea Level PressureIn,VisibilityMPH,Wind Direction,Wind SpeedMPH,Gust SpeedMPH,PrecipitationIn,Events,Conditions,WindDirDegrees,DateUTC
12:15 AM,30.2,28.4,93,29.81,3.0,NNW,9.2,-,0.01,Snow,Light Snow,330,2013-02-21 07:15:00
12:53 AM,30.0,28.0,92,29.83,5.0,NW,6.9,-,0.01,Snow,Light Snow,310,2013-02-21 07:53:00
1:53 AM,28.9,27.0,92,29.85,4.0,NW,6.9,-,0.00,Snow,Light Snow,320,2013-02-21 08:53:00
2:38 AM,28.4,26.6,93,29.84,4.0,NNW,4.6,-,0.01,Snow,Light Snow,340,2013-02-21 09:38:00
2:53 AM,28.0,27.0,96,29.86,6.0,North,4.6,-,0.01,Snow,Light Snow,350,2013-02-21 09:53:00
3:53 AM,28.4,26.6,93,29.84,5.0,Calm,Calm,-,N/A,Snow,Light Snow,0,2013-02-21 10:53:00
4:53 AM,28.0,26.1,92,29.88,6.0,Calm,Calm,-,0.00,Snow,Light Snow,0,2013-02-21 11:53:00
5:53 AM,27.0,25.0,92,29.91,10.0,Calm,Calm,-,0.00,,Mostly Cloudy,0,2013-02-21 12:53:00
6:53 AM,28.0,25.0,88,29.93,3.0,Calm,Calm,-,0.00,Snow,Light Snow,0,2013-02-21 13:53:00
7:08 AM,28.4,24.8,86,29.90,3.0,Calm,Calm,-,0.00,Snow,Light Snow,0,2013-02-21 14:08:00
7:16 AM,26.6,24.8,93,29.90,5.0,Calm,Calm,-,0.00,Snow,Light Snow,0,2013-02-21 14:16:00
7:53 AM,27.0,26.1,96,29.96,10.0,Calm,Calm,-,0.00,,Mostly Cloudy,0,2013-02-21 14:53:00
8:53 AM,28.9,25.0,85,29.98,10.0,Calm,Calm,-,N/A,,Mostly Cloudy,0,2013-02-21 15:53:00
9:53 AM,30.9,25.0,79,29.99,10.0,Calm,Calm,-,N/A,,Mostly Cloudy,0,2013-02-21 16:53:00
10:53 AM,30.9,24.1,76,30.00,10.0,North,4.6,-,N/A,,Mostly Cloudy,360,2013-02-21 17:53:00
11:53 AM,32.0,21.9,66,30.01,10.0,NW,5.8,-,N/A,,Mostly Cloudy,310,2013-02-21 18:53:00
12:53 PM,33.1,21.9,64,29.99,10.0,WNW,9.2,-,N/A,,Mostly Cloudy,290,2013-02-21 19:53:00
1:53 PM,34.0,21.9,61,29.99,10.0,North,11.5,-,N/A,,Scattered Clouds,350,2013-02-21 20:53:00
2:53 PM,34.0,21.0,59,30.01,10.0,North,8.1,-,N/A,,Scattered Clouds,360,2013-02-21 21:53:00
3:53 PM,34.0,18.0,52,30.01,10.0,NNW,5.8,-,N/A,,Scattered Clouds,330,2013-02-21 22:53:00
4:53 PM,33.1,18.0,54,30.02,10.0,NW,6.9,-,N/A,,Scattered Clouds,310,2013-02-21 23:53:00
5:53 PM,32.0,18.0,56,30.02,10.0,NNW,3.5,-,N/A,,Scattered Clouds,340,2013-02-22 00:53:00
6:53 PM,28.0,19.0,69,30.06,10.0,NNW,5.8,-,N/A,,Scattered Clouds,340,2013-02-22 01:53:00
7:53 PM,28.0,19.0,69,30.08,10.0,North,4.6,-,N/A,,Mostly Cloudy,360,2013-02-22 02:53:00
8:53 PM,28.0,19.0,69,30.08,10.0,Calm,Calm,-,N/A,,Mostly Cloudy,0,2013-02-22 03:53:00
9:53 PM,27.0,19.0,72,30.08,10.0,Calm,Calm,-,N/A,,Mostly Cloudy,0,2013-02-22 04:53:00
10:53 PM,26.1,19.0,75,30.08,10.0,Calm,Calm,-,N/A,,Mostly Cloudy,0,2013-02-22 05:53:00
11:53 PM,26.1,18.0,71,30.09,10.0,South,3.5,-,N/A,,Mostly Cloudy,170,2013-02-22 06:53:00